SCP
0 0 0 0 0 0 0 0 0 0 0 0 0 0 0 0 0 0 0 0 0 0 0 0 0 0 0 0 0 0 0 0
0 0 0 0 0 0 0 0 0 0 0 0 0 0 0 0 0 0 0 0 0 0 0 0 0 0 0 0 0 0 0 0
0 0 0 0 0 0 0 0 0 0 0 0 0 0 0 0 0 0 0 0 0 0 0 0 0 0 0 0 0 0 0 0
0 0 0 0 0 0 0 0 0 0 0 0 0 0 0 0 0 0 0 0 0 0 0 0 0 0 0 0 0 0 0 0
0 0 0 0 0 0 0 0 0 0 0 0 0 0 0 0 0 0 0 0 0 0 0 0 -0 0 0 0 0 0 0 0
0 0 0 0 0 0 0 0 0 0 0 0 0 0 0 0 0 0 0 0 0 0 0 0 0 0 0 0 0 0 0 0
0 0 0 0 0 0 0 0 0 0 0 0 0 0 0 0 0 0 0 0 0 0 0 0 0 0 0 0 0 0 0 0
0 0 0 0 0 0 0 0 0 0 0 0 0 0 0 0 0 0 0 0 0 0 0 0 0 0 0 0 0 0 0 0
0 0 0 0 0 0 0 0 0 0 0 0 0 0 0 0 0 0 0 0 0 0 0 0 0 0 0 0 0 0 0 0
0 0 0 0 0 0 0 0 0 0 0 0 0 0 0 0 0 0 0 0 0 0 0 0 0 0 0 0 0 0 0 0
0 0 0 0 0 0 0 0 0 0 0 -0 -0 0 0 0 0 0 0 0 0 0 0 0 0 0 0 -0 -0 -0 -0 0
0 0 0 -0 -0 0 -0 0 0 0 0 0 0 0 -0 0 0 0 0 0 0 0 0 0 0 0 0 0 -0 -0 -0 -0
0 0 -0 -0 -0 0 0 0 0 0 0 0 0 0 0 0 0 0 0 0 0 0 0 0 0 0 0 -0 -0 0 -0 0
0 -0 -0 0 0 0 0 0 0 0 0 0 0 0 0 0 0 0 0 0 0 0 0 0 0 -0 -0 -0 -0 -0 -0 -0
0 0 0 0 0 0 0 0 0 0 0 0 0 0 0 0 0 0 0 0 -0 -0 -0 -0 -0 -0 -0 -0 -0 0 -0 0
0 0 0 0 0 0 0 0 0 0 0 0 0 0 0 0 0 0 0 0 0 0 -0 -0 -0 -0 0 0 -0 0 0 0
0 0 0 0 0 0 0 0 0 0 0 0 0 0 0 0 0 0 0 0 0 0 0 0 0 0 -0 -0 0 0 0 0
0 0 0 0 0 0 0 0 0 0 0 0 0 0 0 0 0 0 0 0 0 0 0 0 0 0 0 0 0 0 0 0
0 0 0 0 0 0 0 0 0 0 0 0 0 0 0 0 0 0 0 0 0 0 0 0 0 0 0 0 0 0 -0 -0
0 0 0 0 0 0 0 0 0 0 0 0 0 0 0 0 0 0 0 0 0 0 0 0 0 0 0 0 0 0 -0 0
Wind_Speed_500mb
29 42 50 56 60 63 67 64 57 63 75 79 80 76 73 70 59 49 46 39 38 35 35 32 43 45 47 39 27 33 36 40
54 64 63 66 66 73 71 73 73 77 66 74 81 76 68 55 48 41 41 31 34 29 25 30 36 41 38 29 23 29 30 25
67 62 65 69 75 80 71 72 71 60 67 82 77 60 52 43 40 36 35 28 26 18 20 31 37 36 27 23 24 23 16 8
62 63 69 73 80 76 70 71 61 61 66 55 60 56 47 41 37 34 32 22 10 4 18 32 34 30 18 14 19 21 16 6
66 66 75 83 86 75 66 62 70 76 71 62 58 49 45 35 38 37 26 17 7 8 26 29 25 16 10 20 23 25 17 16
65 74 82 84 80 69 69 83 82 73 66 61 54 46 42 39 44 28 16 13 11 19 23 19 20 2 10 22 24 25 28 31
80 87 82 79 84 96 101 89 65 61 61 50 45 48 55 44 30 15 10 10 17 16 12 8 5 17 22 26 28 27 37 46
75 72 85 100 99 68 68 66 53 51 52 53 52 26 23 28 20 6 12 20 15 9 8 12 21 34 34 31 28 34 53 59
94 94 77 72 64 57 54 49 47 44 41 42 40 35 32 26 14 15 17 21 19 14 17 31 32 34 32 34 37 40 50 61
73 67 69 68 62 55 51 48 39 32 32 34 26 32 30 21 13 31 24 26 26 35 44 46 39 39 43 48 48 53 62 64
63 63 66 66 59 48 45 34 25 22 21 25 24 23 16 16 43 36 37 38 48 54 46 51 49 46 49 50 58 62 63 66
56 61 61 55 50 19 15 14 17 18 22 21 5 30 46 53 44 45 43 61 61 58 47 58 62 62 62 62 62 60 61 63
54 44 42 34 28 31 26 26 32 33 19 38 57 55 56 58 57 52 57 53 53 51 54 60 68 74 71 63 63 61 58 52
36 34 31 32 36 40 35 29 35 47 60 56 55 56 56 55 56 60 48 49 48 44 45 52 69 70 69 63 60 49 43 40
33 32 30 32 36 36 36 42 55 57 56 59 56 60 58 58 58 57 63 52 48 57 69 76 80 77 65 56 51 47 44 43
30 35 38 37 43 44 38 42 47 53 55 54 55 56 56 57 61 67 68 79 90 84 77 77 69 60 56 54 53 50 51 45
31 36 40 38 39 41 38 43 51 53 52 54 53 58 63 73 78 86 97 99 98 91 77 65 53 50 52 50 45 49 50 49
39 43 40 39 37 31 35 42 47 51 54 57 64 76 86 96 101 110 109 99 87 77 70 61 53 54 51 49 47 46 46 44
37 39 38 39 41 32 36 48 55 59 63 66 76 89 103 96 96 93 89 89 81 74 59 50 46 54 56 51 46 43 39 37
38 39 37 36 35 41 47 55 65 73 81 87 93 100 97 91 95 93 83 76 69 61 56 53 49 50 48 46 42 38 34 31
Wind_Direction_500mb
293 309 309 307 307 307 310 303 295 293 297 294 296 296 299 298 293 295 292 283 266 272 279 289 290 292 287 289 273 276 272 268
311 313 309 311 312 309 303 299 296 302 292 295 299 299 298 294 288 292 298 271 273 271 279 293 293 301 283 286 258 266 264 262
311 311 310 310 307 307 300 299 305 295 292 295 298 299 301 294 287 288 295 274 284 271 298 291 290 295 280 274 244 246 239 219
306 305 304 303 306 304 296 299 294 294 297 294 295 300 299 297 293 284 295 279 284 295 286 288 294 287 267 237 234 202 179 153
293 295 300 306 311 306 297 288 289 293 291 287 287 296 288 297 292 284 291 275 256 261 271 281 297 292 220 192 174 163 153 126
294 299 305 306 305 296 289 288 289 287 282 281 279 282 277 284 283 280 270 273 233 257 269 288 300 116 166 173 168 143 120 110
301 304 302 297 295 291 290 291 290 286 277 265 264 275 277 280 276 272 263 232 219 241 249 296 263 142 156 150 144 126 123 115
300 297 296 292 293 295 289 282 278 265 267 267 275 262 251 253 232 260 267 203 210 203 173 157 147 138 147 145 144 142 129 124
304 301 298 295 297 295 290 286 278 276 273 266 255 248 242 227 196 244 228 205 177 151 136 129 125 133 143 152 149 143 140 133
311 311 309 306 302 295 286 281 277 272 262 255 234 223 217 196 243 194 198 177 162 139 133 123 124 134 148 151 147 143 140 136
322 319 316 311 305 290 276 270 258 241 243 211 203 179 188 184 186 185 168 166 154 134 121 125 124 131 134 136 135 134 131 125
331 332 330 335 329 253 225 199 189 190 177 154 137 141 154 167 175 171 165 154 142 127 131 131 131 130 131 132 130 129 126 122
343 344 3 23 61 101 118 127 132 133 126 139 146 155 159 161 158 153 147 144 139 132 139 140 139 134 135 136 134 129 126 124
359 23 46 62 78 91 99 114 128 135 138 146 149 148 151 151 145 138 140 142 138 137 141 140 131 131 134 135 126 118 112 115
25 45 63 86 97 96 105 123 132 138 142 140 141 138 140 136 136 135 131 129 128 121 124 124 125 126 127 125 121 110 105 108
46 63 73 86 99 102 117 133 138 138 138 137 136 132 131 131 131 128 125 120 116 116 119 121 120 119 117 118 112 114 117 112
67 75 82 90 98 106 121 130 130 129 131 131 130 129 128 128 127 126 124 122 120 120 122 123 123 128 132 125 123 119 116 113
75 78 85 90 93 103 116 125 125 124 124 128 129 129 128 126 125 123 122 122 123 126 124 123 130 128 122 122 121 117 113 109
78 83 87 89 95 107 120 124 123 123 126 129 130 131 126 118 118 119 124 129 126 119 127 132 130 124 124 123 119 110 102 101
87 87 87 94 109 117 121 123 123 126 127 129 130 126 123 122 124 124 125 128 126 129 129 129 127 122 124 121 116 111 107 103
Wind_Speed_850mb
29 42 50 56 60 63 67 64 57 63 75 79 80 76 73 70 59 49 46 39 38 35 35 32 43 45 47 39 27 33 36 40
54 64 63 66 66 73 71 73 73 77 66 74 81 76 68 55 48 41 41 31 34 29 25 30 36 41 38 29 23 29 30 25
67 62 65 69 75 80 71 72 71 60 67 82 77 60 52 43 40 36 35 28 26 18 20 31 37 36 27 23 24 23 16 8
62 63 69 73 80 76 70 71 61 61 66 55 60 56 47 41 37 34 32 22 10 4 18 32 34 30 18 14 19 21 16 6
66 66 75 83 86 75 66 62 70 76 71 62 58 49 45 35 38 37 26 17 7 8 26 29 25 16 10 20 23 25 17 16
65 74 82 84 80 69 69 83 82 73 66 61 54 46 42 39 44 28 16 13 11 19 23 19 20 2 10 22 24 25 28 31
80 87 82 79 84 96 101 89 65 61 61 50 45 48 55 44 30 15 10 10 17 16 12 8 5 17 22 26 28 27 37 46
75 72 85 100 99 68 68 66 53 51 52 53 52 26 23 28 20 6 12 20 15 9 8 12 21 34 34 31 28 34 53 59
94 94 77 72 64 57 54 49 47 44 41 42 40 35 32 26 14 15 17 21 19 14 17 31 32 34 32 34 37 40 50 61
73 67 69 68 62 55 51 48 39 32 32 34 26 32 30 21 13 31 24 26 26 35 44 46 39 39 43 48 48 53 62 64
63 63 66 66 59 48 45 34 25 22 21 25 24 23 16 16 43 36 37 38 48 54 46 51 49 46 49 50 58 62 63 66
56 61 61 55 50 19 15 14 17 18 22 21 5 30 46 53 44 45 43 61 61 58 47 58 62 62 62 62 62 60 61 63
54 44 42 34 28 31 26 26 32 33 19 38 57 55 56 58 57 52 57 53 53 51 54 60 68 74 71 63 63 61 58 52
36 34 31 32 36 40 35 29 35 47 60 56 55 56 56 55 56 60 48 49 48 44 45 52 69 70 69 63 60 49 43 40
33 32 30 32 36 36 36 42 55 57 56 59 56 60 58 58 58 57 63 52 48 57 69 76 80 77 65 56 51 47 44 43
30 35 38 37 43 44 38 42 47 53 55 54 55 56 56 57 61 67 68 79 90 84 77 77 69 60 56 54 53 50 51 45
31 36 40 38 39 41 38 43 51 53 52 54 53 58 63 73 78 86 97 99 98 91 77 65 53 50 52 50 45 49 50 49
39 43 40 39 37 31 35 42 47 51 54 57 64 76 86 96 101 110 109 99 87 77 70 61 53 54 51 49 47 46 46 44
37 39 38 39 41 32 36 48 55 59 63 66 76 89 103 96 96 93 89 89 81 74 59 50 46 54 56 51 46 43 39 37
38 39 37 36 35 41 47 55 65 73 81 87 93 100 97 91 95 93 83 76 69 61 56 53 49 50 48 46 42 38 34 31
Wind_Direction_850mb
293 309 309 307 307 307 310 303 295 293 297 294 296 296 299 298 293 295 292 283 266 272 279 289 290 292 287 289 273 276 272 268
311 313 309 311 312 309 303 299 296 302 292 295 299 299 298 294 288 292 298 271 273 271 279 293 293 301 283 286 258 266 264 262
311 311 310 310 307 307 300 299 305 295 292 295 298 299 301 294 287 288 295 274 284 271 298 291 290 295 280 274 244 246 239 219
306 305 304 303 306 304 296 299 294 294 297 294 295 300 299 297 293 284 295 279 284 295 286 288 294 287 267 237 234 202 179 153
293 295 300 306 311 306 297 288 289 293 291 287 287 296 288 297 292 284 291 275 256 261 271 281 297 292 220 192 174 163 153 126
294 299 305 306 305 296 289 288 289 287 282 281 279 282 277 284 283 280 270 273 233 257 269 288 300 116 166 173 168 143 120 110
301 304 302 297 295 291 290 291 290 286 277 265 264 275 277 280 276 272 263 232 219 241 249 296 263 142 156 150 144 126 123 115
300 297 296 292 293 295 289 282 278 265 267 267 275 262 251 253 232 260 267 203 210 203 173 157 147 138 147 145 144 142 129 124
304 301 298 295 297 295 290 286 278 276 273 266 255 248 242 227 196 244 228 205 177 151 136 129 125 133 143 152 149 143 140 133
311 311 309 306 302 295 286 281 277 272 262 255 234 223 217 196 243 194 198 177 162 139 133 123 124 134 148 151 147 143 140 136
322 319 316 311 305 290 276 270 258 241 243 211 203 179 188 184 186 185 168 166 154 134 121 125 124 131 134 136 135 134 131 125
331 332 330 335 329 253 225 199 189 190 177 154 137 141 154 167 175 171 165 154 142 127 131 131 131 130 131 132 130 129 126 122
343 344 3 23 61 101 118 127 132 133 126 139 146 155 159 161 158 153 147 144 139 132 139 140 139 134 135 136 134 129 126 124
359 23 46 62 78 91 99 114 128 135 138 146 149 148 151 151 145 138 140 142 138 137 141 140 131 131 134 135 126 118 112 115
25 45 63 86 97 96 105 123 132 138 142 140 141 138 140 136 136 135 131 129 128 121 124 124 125 126 127 125 121 110 105 108
46 63 73 86 99 102 117 133 138 138 138 137 136 132 131 131 131 128 125 120 116 116 119 121 120 119 117 118 112 114 117 112
67 75 82 90 98 106 121 130 130 129 131 131 130 129 128 128 127 126 124 122 120 120 122 123 123 128 132 125 123 119 116 113
75 78 85 90 93 103 116 125 125 124 124 128 129 129 128 126 125 123 122 122 123 126 124 123 130 128 122 122 121 117 113 109
78 83 87 89 95 107 120 124 123 123 126 129 130 131 126 118 118 119 124 129 126 119 127 132 130 124 124 123 119 110 102 101
87 87 87 94 109 117 121 123 123 126 127 129 130 126 123 122 124 124 125 128 126 129 129 129 127 122 124 121 116 111 107 103